This demonstration page uses our WeatherBlox Daily Observations layout. Learn more.

Left ArrowRight Arrow

36.17497, -115.13722

Hourly Observations for May 21, 2016

Temp ( °F °C ) Dew Point ( °F °C ) Humidity (%) Winds ( mph kmh ) Pressure ( in mb ) Visibility ( mi km ) Precip ( " mm )
12:53 am 00:53 Clear 66 18.9 31 -0.6 27 27 SW 18 30 29.66 1004 10 16 N/A
1:53 am 01:53 Clear 64 17.8 32 undefined 30 30 SW 18 30 29.68 1005 10 16 N/A
2:53 am 02:53 Clear 62 16.7 31 -0.6 31 31 SSW 12 19 29.70 1006 10 16 N/A
3:53 am 03:53 Clear 61 16.1 31 -0.6 32 32 SW 14 22 29.72 1007 10 16 N/A
4:53 am 04:53 Clear 60 15.6 31 -0.6 33 33 S 15 24 29.75 1007 10 16 N/A
5:53 am 05:53 Sunny 59 15 30 -1.1 33 33 S 18 30 29.74 1007 10 16 N/A
6:53 am 06:53 Sunny 60 15.6 28 -2.2 30 30 SSW 12 19 29.78 1008 10 16 N/A
7:53 am 07:53 Sunny 63 17.2 29 -1.7 28 28 N 6 9 29.81 1009 10 16 N/A
8:53 am 08:53 Sunny 64 17.8 25 -3.9 23 23 N 5 7 29.83 1010 10 16 N/A
9:53 am 09:53 Sunny 65 18.3 24 -4.4 21 21 N N/A 29.83 1010 10 16 N/A
10:53 am 10:53 Sunny 68 20 25 -3.9 20 20 S 9 15 29.84 1010 10 16 N/A
11:53 am 11:53 Sunny 72 22.2 20 -6.7 14 14 S 16 26 29.82 1010 10 16 N/A
12:53 pm 12:53 Sunny 75 23.9 17 -8.3 11 11 S 23 37 29.80 1009 10 16 N/A
1:53 pm 13:53 Sunny 76 24.4 16 -8.9 10 10 S 24 39 29.78 1009 10 16 N/A
2:53 pm 14:53 Sunny 76 24.4 17 -8.3 11 11 WSW 17 28 29.79 1009 10 16 N/A
3:53 pm 15:53 Sunny 77 25 10 -12.2 8 8 WSW 17 28 29.78 1008 10 16 N/A
4:53 pm 16:53 Sunny 77 25 14 -10 9 9 SW 24 39 29.77 1008 10 16 N/A
5:53 pm 17:53 Sunny 76 24.4 15 -9.4 10 10 SSW 20 31 29.77 1008 10 16 N/A
6:53 pm 18:53 Sunny 74 23.3 14 -10 10 10 SW 14 22 29.79 1009 10 16 N/A
7:53 pm 19:53 Clear 72 22.2 10 -12.2 9 9 SSW 16 26 29.79 1009 10 16 N/A
8:53 pm 20:53 Clear 70 21.1 15 -9.4 12 12 SSW 12 19 29.81 1010 10 16 N/A
9:53 pm 21:53 Clear 69 20.6 20 -6.7 15 15 SW 10 17 29.83 1010 10 16 N/A
10:53 pm 22:53 Clear 68 20 22 -5.6 17 17 SW 12 19 29.84 1010 10 16 N/A
11:53 pm 23:53 Clear 66 18.9 28 -2.2 24 24 W 16 26 29.84 1011 10 16 N/A

Powered by AerisWeather